Terminal Aerodrome Forecast
Issued by NWS

Home | Current Version | Previous Version | Text Only | Print | Product List | Glossary On
Versions: 1 2 3 4 5 6 7 8 9 10 11 12 13 14 15 16 17
000
FTUS43 KDTX 110535 RRA
TAFMBS
TAF
KMBS 110535Z 1106/1206 20005KT P6SM -SHSN OVC028
     FM110800 17005KT 3SM -SN BKN025 OVC040
     FM111300 14008KT 2SM -SN OVC015
     FM111700 15010KT 3/4SM -SN OVC010
     FM120100 18008KT 2SM -SN OVC009=

USA.gov is the U.S. government's official web portal to all federal, state and local government web resources and services.